Boise, ID

4:39 AM MDT on May 29, 2017 (GMT -0600)
Boise Air Term

Weather History for KBOI - June, 2013

Change the Weather History Date:

Saturday, June 22, 2013

  Actual Average Record
Temperature  
Mean Temperature 60 °F 69 °F  
Max Temperature 75 °F 84 °F 104 °F (1988)
Min Temperature 44 °F 55 °F 40 °F (1908)
Degree Days  
Heating Degree Days 5 1  
Month to date heating degree days 34 56  
Since 1 June heating degree days 34 56  
Since 1 July heating degree days 5348 5506  
Cooling Degree Days 0 6  
Month to date cooling degree days 101 84  
Year to date cooling degree days 148 128  
Since 1 June cooling degree days 101 84  
Growing Degree Days 10 (Base 50)    
Moisture  
Dew Point 37 °F    
Average Humidity 52    
Maximum Humidity 86    
Minimum Humidity 17    
Precipitation  
Precipitation 0.00 in 0.02 in 0.40 in (1884)
Month to date precipitation 0.01 0.57  
Year to date precipitation 3.93 6.81  
Snow  
Snow 0.00 in 0.00 in 0.00 in (2007)
Month to date snowfall 0.0 0.0  
Since 1 July snowfall 16.0 19.2  
Snow Depth 0.00 in    
Sea Level Pressure  
Sea Level Pressure 30.00 in    
Wind  
Wind Speed 5 mph (NW)    
Max Wind Speed 15 mph    
Max Gust Speed 22 mph    
Visibility 10 miles    
Events      
T = Trace of Precipitation, MM = Missing Value Source: NWS Daily Summary

Daily Weather History Graph

Daily Weather History Graph

Search for Another Location

Airport or City:

Trip Planner

Search our weather history database for the weather conditions in past years. The results will help you decide how hot, cold, wet, or windy it might be!

Date:

Astronomy

Jun. 22, 2013 Rise Set
Actual Time 6:04 AM MDT 9:29 PM MDT
Civil Twilight 5:28 AM MDT 10:05 PM MDT
Nautical Twilight 4:41 AM MDT 10:52 PM MDT
Astronomical Twilight 3:41 AM MDT 11:52 PM MDT
Moon 8:47 PM MDT (6/22) 5:23 AM MDT (6/22)
Length of Visible Light 16h 37m
Length of Day
15h 25m
Waxing Gibbous, 99% of the Moon is Illuminated
Jun 22
Waxing Gibbous
Jun 23
Full
Jun 29
Last Quarter
Jul 8
New
Jul 15
First Quarter

Hourly Weather History & Observations

Time (MDT) Temp. Dew Point Humidity Pressure Visibility Wind Dir Wind Speed Gust Speed Precip Events Conditions
12:53 AM 54.0 °F 39.9 °F 59% 30.04 in 10.0 mi NW 3.5 mph - N/A   Clear
1:53 AM 52.0 °F 39.9 °F 63% 30.03 in 10.0 mi Calm Calm - N/A   Clear
2:53 AM 50.0 °F 39.9 °F 68% 30.03 in 10.0 mi Calm Calm - N/A   Clear
3:53 AM 48.0 °F 42.1 °F 80% 30.04 in 10.0 mi WSW 5.8 mph - N/A   Clear
4:53 AM 46.9 °F 42.1 °F 83% 30.06 in 10.0 mi Calm Calm - N/A   Clear
5:53 AM 44.1 °F 39.9 °F 85% 30.06 in 10.0 mi Calm Calm - N/A   Clear
6:53 AM 46.9 °F 41.0 °F 80% 30.07 in 10.0 mi Calm Calm - N/A   Clear
7:53 AM 51.1 °F 42.1 °F 71% 30.08 in 10.0 mi NNW 3.5 mph - N/A   Clear
8:53 AM 53.1 °F 42.1 °F 66% 30.08 in 10.0 mi Calm Calm - N/A   Clear
9:53 AM 55.9 °F 42.1 °F 60% 30.08 in 10.0 mi NW 6.9 mph - N/A   Clear
10:53 AM 61.0 °F 42.1 °F 50% 30.07 in 10.0 mi NW 8.1 mph - N/A   Clear
11:53 AM 63.0 °F 41.0 °F 45% 30.06 in 10.0 mi WNW 11.5 mph 17.3 mph N/A   Clear
12:53 PM 66.0 °F 37.9 °F 36% 30.04 in 10.0 mi NW 11.5 mph 20.7 mph N/A   Clear
1:53 PM 66.9 °F 35.1 °F 31% 30.03 in 10.0 mi WNW 6.9 mph - N/A   Clear
2:53 PM 69.1 °F 32.0 °F 25% 30.01 in 10.0 mi North 8.1 mph - N/A   Clear
3:53 PM 72.0 °F 32.0 °F 23% 29.98 in 10.0 mi North 9.2 mph 16.1 mph N/A   Clear
4:53 PM 72.0 °F 30.9 °F 22% 29.97 in 10.0 mi Calm Calm - N/A   Clear
5:53 PM 73.9 °F 27.0 °F 18% 29.95 in 10.0 mi North 11.5 mph - N/A   Clear
6:53 PM 73.9 °F 30.9 °F 21% 29.92 in 10.0 mi NNW 8.1 mph - N/A   Clear
7:53 PM 73.0 °F 30.9 °F 21% 29.91 in 10.0 mi NW 10.4 mph - N/A   Clear
8:53 PM 71.1 °F 30.9 °F 23% 29.90 in 10.0 mi NNE 3.5 mph - N/A   Clear
9:53 PM 68.0 °F 32.0 °F 26% 29.90 in 10.0 mi SW 3.5 mph - N/A   Clear
10:53 PM 64.9 °F 36.0 °F 34% 29.90 in 10.0 mi Calm Calm - N/A   Clear
11:53 PM 62.1 °F 34.0 °F 35% 29.89 in 10.0 mi SE 3.5 mph - N/A   Clear